Blountville, TN

6:38 PM EST on February 25, 2017 (GMT -0500)
Tri-Cities Regional Tennessee / Virginia

Weather History for KTRI - December, 2011

Change the Weather History Date:

Tuesday, December 13, 2011

  Actual Average Record
Temperature  
Mean Temperature 49 °F 38 °F  
Max Temperature 55 °F 48 °F 72 °F (2015)
Min Temperature 43 °F 28 °F -9 °F (1962)
Degree Days  
Heating Degree Days 16 27  
Month to date heating degree days 293 330  
Since 1 July heating degree days 1085 1216  
Cooling Degree Days 0 0  
Month to date cooling degree days 0 0  
Year to date cooling degree days 1331 981  
Moisture  
Dew Point 40 °F    
Average Humidity 78    
Maximum Humidity 92    
Minimum Humidity 63    
Precipitation  
Precipitation 0.00 in 0.11 in 1.18 in (1998)
Month to date precipitation 2.24 1.49  
Year to date precipitation 45.82 39.13  
Snow  
Snow 0.00 in 0.10 in - ()
Month to date snowfall T 0.8  
Since 1 July snowfall T 1.1  
Snow Depth 0.00 in    
Sea Level Pressure  
Sea Level Pressure 30.42 in    
Wind  
Wind Speed 2 mph (SW)    
Max Wind Speed 7 mph    
Max Gust Speed 10 mph    
Visibility 10 miles    
Events      
T = Trace of Precipitation, MM = Missing Value Source: NWS Daily Summary

Daily Weather History Graph

Daily Weather History Graph

Search for Another Location

Airport or City:

Trip Planner

Search our weather history database for the weather conditions in past years. The results will help you decide how hot, cold, wet, or windy it might be!

Date:

Astronomy

Dec. 13, 2011 Rise Set
Actual Time 7:32 AM EST 5:14 PM EST
Civil Twilight 7:03 AM EST 5:43 PM EST
Nautical Twilight 6:31 AM EST 6:15 PM EST
Astronomical Twilight 6:00 AM EST 6:47 PM EST
Moon 8:25 PM EST (12/13) 9:44 AM EST (12/13)
Length of Visible Light 10h 39m
Length of Day
9h 42m
Waning Gibbous, 90% of the Moon is Illuminated
Dec 13
Waning Gibbous
Dec 17
Last Quarter
Dec 24
New
Jan 1
First Quarter
Jan 9
Full

Hourly Weather History & Observations

Time (EST) Temp. Windchill Dew Point Humidity Pressure Visibility Wind Dir Wind Speed Gust Speed Precip Events Conditions
12:53 AM 43.0 °F - 37.0 °F 80% 30.43 in 10.0 mi Calm Calm - N/A   Overcast
1:53 AM 44.1 °F - 36.0 °F 73% 30.42 in 10.0 mi Calm Calm - N/A   Overcast
2:53 AM 44.1 °F - 37.0 °F 76% 30.41 in 10.0 mi Calm Calm - N/A   Overcast
3:53 AM 45.0 °F - 37.0 °F 74% 30.41 in 10.0 mi Calm Calm - N/A   Overcast
4:53 AM 44.1 °F - 37.0 °F 76% 30.40 in 10.0 mi Calm Calm - N/A   Overcast
5:49 AM 44.6 °F 42.2 °F 37.4 °F 76% 30.44 in 10.0 mi WSW 4.6 mph - N/A   Overcast
5:53 AM 44.1 °F 41.5 °F 37.9 °F 79% 30.42 in 10.0 mi SW 4.6 mph - N/A   Overcast
6:53 AM 45.0 °F - 39.0 °F 80% 30.44 in 10.0 mi Calm Calm - N/A   Overcast
7:53 AM 45.0 °F - 39.0 °F 80% 30.44 in 10.0 mi Calm Calm - N/A   Overcast
8:53 AM 45.0 °F - 39.9 °F 82% 30.47 in 10.0 mi Calm Calm - N/A   Overcast
9:53 AM 46.9 °F - 39.0 °F 74% 30.46 in 10.0 mi Calm Calm - N/A   Overcast
10:02 AM 48.2 °F - 39.2 °F 71% 30.48 in 10.0 mi Calm Calm - N/A   Overcast
10:53 AM 48.9 °F - 39.0 °F 69% 30.48 in 10.0 mi Calm Calm - N/A   Overcast
11:53 AM 51.1 °F - 39.0 °F 63% 30.46 in 10.0 mi Calm Calm - N/A   Overcast
12:53 PM 52.0 °F - 41.0 °F 66% 30.42 in 10.0 mi SSE 4.6 mph - N/A   Overcast
1:53 PM 53.1 °F - 42.1 °F 66% 30.41 in 10.0 mi WSW 4.6 mph - N/A   Overcast
2:25 PM 55.4 °F - 42.8 °F 63% 30.42 in 10.0 mi Calm Calm - N/A   Mostly Cloudy
2:53 PM 54.0 °F - 43.0 °F 66% 30.39 in 10.0 mi ESE 3.5 mph - N/A   Mostly Cloudy
3:53 PM 54.0 °F - 44.1 °F 69% 30.38 in 10.0 mi SW 5.8 mph - N/A   Mostly Cloudy
4:53 PM 53.1 °F - 43.0 °F 69% 30.39 in 10.0 mi WSW 4.6 mph - N/A   Mostly Cloudy
5:53 PM 48.9 °F - 42.1 °F 77% 30.39 in 10.0 mi SW 3.5 mph - N/A   Overcast
6:53 PM 48.9 °F - 42.1 °F 77% 30.39 in 10.0 mi WSW 3.5 mph - N/A   Overcast
7:53 PM 46.0 °F - 42.1 °F 86% 30.38 in 10.0 mi Calm Calm - N/A   Mostly Cloudy
8:53 PM 48.0 °F - 42.1 °F 80% 30.39 in 10.0 mi NNW 3.5 mph - N/A   Mostly Cloudy
9:53 PM 46.9 °F - 42.1 °F 83% 30.40 in 10.0 mi Calm Calm - N/A   Overcast
10:53 PM 45.0 °F - 42.1 °F 90% 30.40 in 10.0 mi Calm Calm - N/A   Mostly Cloudy
11:53 PM 45.0 °F - 43.0 °F 93% 30.39 in 10.0 mi Calm Calm - N/A   Overcast